Temperature
19 19 18 18 18 18 18 18 18 18 18 18 18 18 18 18 18 18 18 18 18 18 18 18 18 18 18 18 18 18 18 18 18 18 18 18 18 18 18 18 17 17 17
19 18 18 18 18 18 18 18 17 17 17 17 17 17 17 17 17 17 18 18 18 18 18 18 18 18 18 18 18 18 18 18 18 18 18 18 18 18 18 18 17 17 17
19 19 19 18 18 18 18 17 17 17 17 17 17 17 17 17 17 17 17 18 18 18 18 18 18 18 18 18 18 18 18 18 19 18 18 18 18 18 18 18 18 17 17
19 19 19 18 18 18 17 17 17 17 17 17 17 17 17 17 17 17 17 18 18 18 18 18 18 18 18 18 18 18 18 18 18 18 18 18 18 18 18 18 18 18 17
19 19 19 19 18 18 17 17 17 17 17 17 17 17 17 18 18 18 18 18 18 18 18 18 18 18 18 18 18 18 18 18 18 18 18 18 18 18 18 18 18 18 18
19 19 19 19 18 18 18 17 17 17 17 17 17 17 17 18 18 18 18 18 18 18 18 18 18 18 18 18 18 18 18 18 18 18 18 18 18 18 18 18 18 18 18
20 19 19 19 19 18 18 18 17 17 17 17 17 17 18 18 18 18 17 17 17 17 17 17 17 17 18 18 18 18 18 18 18 18 18 18 18 18 18 18 18 18 18
19 19 19 19 19 19 18 18 17 17 17 16 16 16 16 17 17 17 17 17 17 17 17 17 17 18 18 18 18 18 18 18 18 18 18 18 18 18 18 18 18 18 18
19 19 19 19 19 19 18 18 18 17 17 16 16 15 15 14 15 17 17 17 17 17 17 17 17 18 18 18 18 18 18 18 18 18 17 17 18 18 18 18 18 18 18
18 18 18 18 18 18 18 18 18 17 17 17 16 15 15 14 14 14 16 17 17 17 17 17 17 18 18 18 18 18 18 18 18 17 17 17 17 17 18 17 17 18 18
17 17 17 17 17 17 17 17 17 17 17 16 16 16 15 15 14 14 14 16 16 16 16 16 17 17 17 17 18 18 18 18 18 17 17 17 17 17 17 17 17 17 17
16 16 16 16 17 17 17 17 17 17 16 16 16 16 15 15 15 14 13 14 15 16 16 16 16 16 17 17 18 18 18 18 18 18 17 17 17 17 17 17 17 17 17
15 16 16 16 16 16 16 16 16 16 16 16 16 16 15 15 14 14 13 13 13 14 15 15 16 16 16 17 17 18 18 17 17 17 17 17 17 17 17 17 17 17 17
14 14 14 14 15 15 15 15 15 15 15 15 15 15 15 15 14 14 13 13 13 13 14 14 15 15 15 16 16 17 17 17 17 17 17 17 17 17 17 17 17 17 17
13 13 13 13 13 14 14 14 14 15 15 15 15 15 15 15 14 14 14 13 13 12 13 14 14 14 14 15 15 16 16 16 16 17 16 16 16 16 16 16 16 16 16
12 12 12 12 13 13 13 13 13 14 14 14 14 14 14 15 14 14 14 13 13 13 12 13 13 14 14 14 14 15 15 15 15 16 16 16 16 15 15 15 15 16 16
11 11 11 11 11 12 12 12 13 13 13 13 14 14 14 14 14 14 14 14 13 13 13 13 13 13 13 13 13 13 14 14 14 14 14 15 15 15 15 15 15 15 15
10 10 10 10 11 11 11 11 12 12 12 13 13 13 13 14 14 14 14 14 14 13 13 13 13 13 13 13 13 12 12 13 13 13 13 13 13 14 14 14 14 14 14
10 10 10 10 10 10 10 11 11 11 12 12 12 12 13 13 13 14 14 14 14 13 13 13 13 13 12 12 12 12 12 12 12 12 12 12 12 13 13 13 13 13 13
10 10 10 10 10 10 10 10 10 10 11 11 12 12 12 13 13 13 13 13 13 13 13 12 12 12 12 12 12 12 11 11 11 11 11 12 12 12 12 12 12 12 12
10 10 10 10 9 9 9 10 10 10 10 11 11 12 12 13 13 13 13 13 13 13 12 12 12 12 12 11 11 11 11 11 10 11 11 11 11 11 11 11 11 12 12
10 10 10 9 9 9 9 9 9 10 10 10 11 11 12 12 12 12 13 13 12 12 12 12 12 12 12 11 11 11 11 11 10 10 11 10 10 11 11 11 11 11 11
9 9 9 9 9 9 9 9 9 9 9 10 10 11 11 12 12 12 12 12 12 12 12 12 12 12 12 11 11 11 11 11 11 10 10 10 10 10 10 10 10 10 10
9 9 9 9 9 9 9 9 9 9 9 10 10 10 11 11 11 12 12 11 11 11 11 12 12 12 12 11 11 11 11 10 10 10 10 10 9 9 9 9 9 9 10
9 9 8 8 8 8 9 9 9 9 9 9 9 10 10 11 11 11 11 11 11 11 11 11 11 11 11 11 11 11 10 10 9 9 10 10 9 9 9 8 8 8 9
8 8 8 8 8 8 8 8 8 8 9 9 9 9 10 10 11 11 11 11 11 11 11 11 11 11 11 11 11 11 11 10 10 9 9 9 9 9 8 8 8 8 8
Wind_Speed
7 5 3 3 3 4 4 4 5 6 7 7 8 9 9 10 12 13 13 17 20 20 20 19 25 28 28 27 26 25 25 25 24 25 25 25 25 25 24 24 23 23 22
5 5 3 2 2 3 4 4 5 5 5 5 7 7 7 8 9 11 13 16 20 20 20 20 24 28 29 28 26 26 25 25 25 25 26 26 26 26 26 25 25 24 24
5 4 3 2 2 2 2 2 2 2 3 3 5 6 6 6 6 8 11 12 14 17 20 22 25 27 29 29 28 27 26 26 25 25 26 26 27 26 26 26 26 26 26
7 4 3 2 1 1 1 0 0 0 1 2 3 4 5 5 7 7 9 10 11 13 17 22 25 27 29 30 29 27 26 26 26 26 26 27 27 27 27 27 27 26 26
8 4 3 2 2 2 1 1 1 1 1 3 4 5 4 5 6 7 8 8 10 12 13 17 24 27 30 30 29 29 27 26 26 26 27 27 27 27 27 27 27 27 27
7 5 4 3 3 3 1 0 0 1 1 2 4 4 5 6 6 6 7 7 7 10 12 14 15 19 27 29 29 29 28 28 27 27 27 27 27 26 27 27 27 27 27
7 5 4 4 4 3 2 1 1 1 2 1 2 4 5 5 5 5 4 4 6 6 7 9 10 12 14 22 27 28 28 28 28 28 27 27 27 27 26 27 27 27 27
6 5 6 5 4 3 2 1 1 1 1 1 1 1 4 5 4 3 2 3 4 4 5 6 7 9 11 11 16 23 28 29 29 29 28 28 27 27 27 27 27 27 27
6 5 6 6 5 5 4 3 3 3 2 1 1 2 0 3 4 4 3 2 3 4 5 5 5 6 10 10 12 17 23 26 28 29 28 27 27 27 27 27 27 26 27
5 6 6 7 6 5 5 4 4 4 3 2 2 2 3 4 2 4 4 3 4 5 5 6 5 4 5 6 10 14 17 19 22 25 26 27 25 24 25 26 27 27 27
4 5 6 7 7 6 6 6 5 4 4 4 3 3 3 3 5 4 6 5 4 3 4 5 4 3 3 4 6 10 14 15 18 19 20 21 22 22 23 24 26 27 27
3 3 4 5 6 6 7 7 7 6 5 5 4 4 4 4 4 4 6 6 6 4 5 5 4 3 3 3 4 8 11 13 14 14 13 14 17 18 19 18 20 22 23
4 4 3 3 4 5 7 7 7 7 7 6 6 5 5 6 5 5 6 6 5 4 4 3 3 2 2 1 2 4 7 9 10 10 10 9 10 10 11 12 15 17 19
5 5 5 5 4 4 5 6 6 7 6 7 8 7 6 6 5 5 5 5 6 4 3 3 2 1 1 1 2 3 3 6 7 8 7 6 6 6 6 6 8 10 11
5 6 7 6 6 6 5 4 5 7 7 7 8 8 6 6 5 6 5 5 5 5 4 3 1 0 1 2 3 5 6 8 9 10 9 8 7 7 6 5 3 2 4
5 6 7 7 7 7 6 5 5 6 7 7 6 7 7 6 5 5 5 5 6 6 5 2 2 1 1 3 6 7 9 11 12 12 12 12 12 12 12 10 8 6 3
6 7 7 7 7 8 7 6 7 7 7 7 7 8 8 7 5 5 4 4 5 6 7 3 2 2 3 6 6 7 8 8 10 14 15 15 15 15 15 14 14 13 11
8 7 7 7 8 8 7 7 8 8 7 7 8 8 8 7 6 5 4 5 5 5 5 4 2 2 4 7 8 9 7 8 10 15 17 17 18 17 17 16 16 16 16
9 8 8 8 8 8 8 8 8 8 8 8 7 8 9 8 7 5 5 4 4 4 4 5 3 3 4 7 9 8 9 8 9 13 17 18 18 18 17 17 17 17 18
10 10 9 9 9 8 8 8 7 7 8 7 7 8 9 9 8 6 5 5 4 4 4 5 5 6 6 7 8 9 8 6 7 8 11 14 17 18 17 17 17 17 18
11 10 9 9 8 7 8 7 6 7 8 7 7 8 8 9 10 7 5 4 4 4 5 5 6 7 7 9 8 7 10 9 7 5 7 7 7 8 10 13 14 16 17
10 9 9 9 8 8 10 11 8 7 8 8 7 7 8 8 9 9 8 6 7 7 7 6 6 9 9 9 9 10 11 9 5 2 5 6 5 7 5 8 12 14 16
9 9 9 9 9 10 13 13 12 7 8 8 8 8 8 8 8 6 6 5 4 5 7 7 9 10 11 12 12 10 9 6 7 6 6 6 4 6 4 9 12 14 15
8 8 9 9 9 10 13 13 12 7 7 8 8 9 9 9 9 8 7 5 4 4 5 6 8 9 11 11 10 10 11 10 8 5 4 5 3 4 4 6 10 12 14
8 8 7 9 9 10 12 13 11 5 6 7 8 9 10 11 13 13 10 8 6 5 7 11 12 13 14 14 12 11 11 12 9 4 2 4 4 3 3 3 6 10 12
8 9 9 9 10 10 12 13 11 5 6 5 5 7 11 12 15 15 11 10 10 7 9 12 12 13 12 12 13 11 12 12 10 5 3 4 4 4 3 2 2 4 7
Wind_Direction
213 209 213 219 221 217 217 226 230 233 235 235 236 236 235 233 233 233 238 245 252 254 255 253 241 232 226 220 217 217 218 218 218 217 215 215 213 211 209 209 208 207 207
192 191 204 212 222 214 211 214 224 226 234 236 242 242 241 238 233 229 233 240 246 247 247 245 240 238 232 226 221 220 219 220 220 219 219 217 216 215 213 212 211 210 209
178 176 176 184 214 208 207 224 242 232 243 245 250 253 249 240 236 233 235 233 238 240 239 239 238 238 235 231 227 223 221 220 220 221 221 219 218 217 216 214 213 212 211
164 158 158 175 194 137 87 184 279 307 295 284 275 268 259 251 247 242 240 235 231 236 235 237 236 235 237 237 234 229 224 222 221 221 222 221 220 219 218 217 216 215 213
157 144 152 162 135 97 79 91 101 160 285 299 285 272 268 261 255 256 248 241 236 233 233 238 238 237 238 240 238 234 229 226 224 223 223 222 222 221 220 219 218 217 215
156 142 145 144 124 106 86 64 246 240 236 267 292 296 277 266 258 252 253 254 246 243 239 240 239 240 239 240 240 237 233 231 227 225 224 224 224 223 222 221 220 219 217
159 153 150 147 137 137 157 233 218 284 289 309 344 319 303 287 276 265 263 270 270 263 252 244 238 238 241 240 240 238 236 235 232 229 227 226 225 223 223 223 221 220 219
167 169 166 167 164 155 149 179 173 201 279 7 107 336 334 333 336 310 302 289 297 304 289 274 250 240 240 239 239 238 237 235 233 232 230 228 226 224 223 223 222 222 221
181 175 180 178 182 173 181 201 197 181 216 271 189 175 225 286 308 303 292 297 320 315 303 293 275 259 244 234 233 233 234 234 233 233 234 233 229 227 224 223 223 222 222
197 194 192 194 193 189 191 204 191 187 183 230 266 216 203 201 254 304 304 292 303 308 306 308 300 289 268 240 230 229 230 231 233 235 234 233 229 228 228 226 224 223 222
238 226 214 204 202 200 200 201 199 208 202 205 214 227 235 226 216 239 288 304 311 286 288 290 288 282 274 251 233 226 222 222 226 231 235 237 235 230 229 230 229 228 225
281 270 238 222 213 207 207 206 206 213 218 221 223 220 219 227 222 227 263 290 297 291 290 280 275 263 260 247 238 220 209 213 218 221 227 234 235 231 229 231 234 235 232
312 304 296 255 230 219 215 209 206 215 217 221 227 231 230 231 228 232 255 276 282 286 284 288 278 266 266 267 240 215 201 201 210 209 205 205 210 215 219 224 233 236 237
313 320 319 305 282 256 238 220 218 221 219 222 232 233 237 238 231 230 236 258 285 280 261 265 296 286 315 15 68 77 101 148 163 164 163 162 170 180 190 207 228 235 238
318 334 329 319 308 295 279 255 238 235 227 226 232 236 238 240 235 236 232 226 246 275 278 243 245 348 88 76 78 88 97 112 119 119 118 121 121 121 121 126 163 202 231
308 313 316 316 311 304 295 282 267 253 239 236 233 233 239 241 238 236 234 230 226 239 255 225 222 206 143 117 99 95 95 96 95 100 101 100 98 96 91 88 84 85 91
286 291 294 300 302 300 294 286 273 263 251 248 241 232 235 234 234 237 237 237 233 227 246 244 213 164 137 126 110 96 90 86 89 92 95 93 90 87 86 84 80 75 73
267 270 276 282 286 291 292 287 283 273 255 250 245 237 237 235 233 235 236 239 235 221 223 227 205 163 139 135 121 108 96 93 91 93 93 92 89 87 84 82 80 78 74
257 261 263 266 270 273 277 276 275 272 257 246 241 237 234 226 230 231 232 235 232 227 210 194 188 159 135 134 122 108 102 96 92 92 88 87 86 84 82 80 80 79 77
249 253 253 252 256 262 267 270 273 275 263 250 244 238 226 218 220 223 228 226 218 210 194 181 170 153 138 131 127 125 113 98 95 91 86 85 83 81 79 79 79 79 79
246 244 245 249 250 255 259 260 264 274 266 254 249 236 222 215 211 211 211 208 202 201 185 175 163 148 143 144 137 130 122 111 89 90 95 80 77 73 67 70 77 81 83
243 241 238 239 243 253 262 267 266 269 266 250 245 234 221 211 206 204 202 198 197 192 182 174 163 155 149 143 135 137 134 131 115 107 100 86 74 76 62 66 74 81 85
235 237 238 236 237 244 253 262 267 263 261 248 240 226 215 205 190 183 178 175 182 177 173 169 161 154 151 150 144 142 141 127 123 145 116 92 68 73 59 66 74 81 87
230 231 234 235 235 244 248 255 262 258 258 252 240 225 210 193 187 174 162 150 138 136 146 147 147 144 143 145 144 141 132 114 103 108 102 104 82 72 61 50 64 78 85
233 231 230 230 231 241 245 251 255 248 252 261 251 229 207 193 185 169 157 148 133 117 107 117 121 125 130 135 137 132 132 133 130 129 104 107 118 91 62 42 49 71 82
235 237 237 231 227 232 238 242 241 227 243 259 256 228 208 193 175 166 161 154 146 138 127 117 112 113 121 131 138 142 145 143 139 139 159 117 140 125 90 34 35 60 76
Height
1520 1520 1520 1520 1519 1519 1519 1519 1519 1519 1519 1519 1519 1519 1520 1520 1521 1522 1522 1523 1524 1525 1525 1526 1527 1529 1531 1532 1534 1535 1536 1538 1539 1541 1543 1546 1548 1550 1552 1554 1556 1558 1560
1518 1518 1517 1517 1516 1516 1515 1515 1515 1515 1515 1515 1515 1515 1515 1516 1516 1516 1517 1518 1518 1519 1520 1521 1522 1523 1525 1527 1528 1530 1531 1533 1534 1536 1539 1541 1543 1546 1548 1550 1552 1554 1557
1516 1516 1515 1514 1513 1512 1512 1512 1512 1511 1511 1510 1510 1510 1510 1510 1511 1511 1511 1512 1513 1514 1515 1516 1517 1518 1519 1521 1523 1525 1526 1528 1530 1532 1534 1536 1539 1541 1544 1546 1548 1550 1553
1514 1514 1512 1511 1510 1509 1509 1508 1508 1508 1507 1506 1506 1505 1505 1506 1506 1506 1506 1506 1507 1508 1509 1510 1511 1513 1514 1516 1517 1519 1521 1523 1525 1527 1529 1531 1534 1536 1539 1541 1544 1546 1549
1512 1511 1510 1509 1507 1506 1506 1505 1505 1505 1504 1503 1501 1501 1500 1500 1500 1500 1500 1501 1501 1502 1503 1504 1505 1507 1508 1510 1511 1513 1515 1517 1520 1522 1524 1526 1529 1531 1534 1537 1539 1542 1544
1510 1509 1508 1507 1505 1504 1503 1503 1502 1501 1500 1499 1497 1496 1495 1495 1495 1495 1496 1496 1496 1496 1497 1498 1499 1500 1502 1503 1505 1507 1509 1511 1514 1516 1519 1521 1524 1526 1529 1532 1535 1537 1540
1508 1507 1506 1505 1503 1502 1500 1500 1499 1498 1497 1496 1494 1492 1491 1490 1490 1490 1491 1491 1491 1491 1491 1492 1492 1494 1495 1497 1498 1500 1503 1505 1507 1510 1513 1516 1518 1521 1524 1527 1530 1532 1535
1504 1505 1504 1503 1501 1500 1498 1497 1497 1495 1494 1493 1491 1488 1486 1486 1486 1487 1487 1487 1487 1487 1487 1487 1487 1487 1488 1490 1492 1494 1496 1498 1501 1504 1507 1510 1512 1515 1518 1521 1524 1527 1529
1501 1501 1501 1500 1499 1498 1496 1495 1494 1493 1491 1490 1489 1488 1485 1483 1481 1480 1482 1482 1483 1483 1482 1482 1481 1481 1482 1483 1485 1487 1489 1492 1494 1497 1500 1503 1506 1509 1512 1515 1518 1521 1524
1497 1497 1497 1496 1495 1494 1493 1492 1491 1490 1488 1487 1486 1485 1484 1482 1480 1476 1476 1477 1478 1477 1477 1477 1476 1476 1476 1477 1478 1480 1482 1485 1488 1491 1493 1496 1498 1502 1505 1508 1511 1514 1517
1492 1492 1492 1491 1490 1490 1489 1489 1488 1487 1486 1484 1482 1482 1480 1479 1477 1476 1471 1470 1471 1472 1472 1471 1470 1470 1471 1471 1473 1474 1476 1479 1482 1484 1487 1489 1492 1495 1498 1501 1504 1507 1510
1487 1486 1485 1485 1484 1484 1484 1484 1483 1483 1482 1480 1479 1478 1476 1474 1473 1472 1469 1466 1465 1466 1466 1466 1465 1465 1465 1466 1467 1469 1470 1473 1475 1478 1480 1483 1485 1488 1492 1494 1497 1500 1502
1481 1480 1479 1478 1478 1478 1478 1478 1478 1478 1477 1476 1475 1474 1472 1470 1469 1467 1465 1463 1461 1460 1460 1461 1461 1460 1460 1461 1462 1463 1465 1467 1470 1473 1474 1477 1480 1482 1485 1488 1490 1493 1495
1475 1473 1473 1472 1472 1472 1472 1472 1472 1472 1472 1471 1470 1469 1468 1466 1464 1463 1461 1460 1457 1456 1456 1456 1456 1456 1456 1457 1458 1459 1460 1463 1466 1468 1469 1471 1474 1477 1479 1481 1484 1486 1488
1469 1468 1467 1466 1466 1465 1465 1465 1465 1465 1466 1466 1465 1464 1463 1461 1459 1458 1457 1456 1456 1453 1451 1452 1452 1452 1453 1453 1454 1456 1457 1459 1462 1463 1465 1467 1470 1472 1473 1475 1478 1479 1481
1464 1462 1461 1460 1460 1459 1458 1458 1458 1458 1459 1459 1459 1458 1457 1456 1454 1453 1452 1451 1450 1450 1448 1448 1449 1449 1450 1451 1452 1453 1454 1456 1458 1460 1462 1464 1465 1467 1469 1470 1472 1474 1475
1459 1457 1456 1454 1453 1452 1452 1451 1451 1451 1452 1452 1452 1452 1451 1451 1449 1447 1446 1445 1444 1445 1444 1444 1445 1446 1447 1448 1449 1451 1452 1454 1456 1458 1459 1461 1462 1464 1465 1467 1468 1469 1471
1454 1452 1450 1448 1447 1446 1445 1444 1444 1444 1445 1445 1445 1445 1445 1444 1443 1442 1440 1439 1439 1439 1439 1439 1441 1442 1444 1446 1448 1450 1451 1453 1454 1456 1458 1460 1461 1463 1464 1465 1466 1467 1468
1448 1446 1445 1443 1441 1440 1439 1438 1438 1437 1437 1438 1438 1438 1438 1438 1437 1436 1435 1434 1433 1433 1434 1435 1436 1439 1441 1444 1446 1449 1451 1453 1454 1456 1458 1459 1461 1463 1464 1465 1466 1467 1468
1441 1439 1438 1437 1435 1434 1433 1432 1431 1431 1430 1430 1430 1431 1431 1431 1431 1430 1429 1429 1428 1428 1429 1430 1433 1435 1438 1441 1444 1447 1450 1453 1455 1457 1459 1460 1462 1464 1466 1467 1467 1468 1469
1433 1432 1431 1430 1429 1428 1427 1426 1425 1424 1423 1423 1423 1424 1424 1425 1425 1425 1424 1424 1424 1424 1424 1426 1429 1432 1435 1438 1442 1446 1449 1452 1455 1458 1460 1462 1464 1466 1467 1469 1470 1470 1471
1426 1425 1424 1423 1422 1421 1421 1420 1419 1418 1417 1416 1416 1417 1418 1419 1419 1420 1420 1419 1420 1420 1420 1422 1425 1428 1432 1436 1440 1444 1448 1451 1455 1460 1461 1464 1466 1468 1469 1471 1472 1473 1474
1417 1417 1416 1415 1414 1414 1414 1413 1412 1411 1410 1409 1409 1410 1411 1412 1414 1415 1415 1415 1416 1416 1418 1420 1422 1426 1430 1433 1438 1443 1448 1451 1454 1459 1463 1464 1468 1470 1471 1473 1474 1475 1476
1409 1408 1408 1407 1407 1406 1406 1406 1405 1404 1403 1402 1403 1403 1405 1406 1408 1410 1411 1412 1413 1414 1415 1418 1421 1425 1429 1434 1438 1443 1447 1452 1457 1461 1464 1466 1470 1472 1474 1475 1476 1477 1478
1399 1399 1399 1399 1399 1399 1399 1399 1398 1397 1397 1396 1396 1397 1398 1400 1403 1406 1408 1410 1411 1413 1415 1418 1421 1425 1430 1434 1439 1443 1448 1452 1457 1462 1466 1467 1471 1474 1476 1478 1479 1480 1480
1389 1390 1390 1390 1391 1391 1391 1392 1392 1391 1390 1390 1390 1390 1392 1395 1398 1402 1405 1407 1409 1412 1415 1418 1422 1426 1431 1436 1440 1444 1447 1452 1456 1462 1467 1469 1472 1474 1478 1480 1481 1482 1483